Regional Weather Roundup
Issued by NWS

Home | Current Version | Previous Version | Text Only | Print | Product List | Glossary Off
Versions: 1 2 3 4 5 6 7 8 9 10 11 12 13 14 15 16 17 18 19 20 21 22 23 24 25 26 27 28 29 30 31 32 33 34 35 36 37 38 39 40 41 42 43 44 45 46 47 48 49 50

000
ASUS43 KBIS 060610
RWRND

NORTH DAKOTA REGIONAL WEATHER ROUNDUP
NATIONAL WEATHER SERVICE BISMARCK ND
100 AM CDT WED MAY 06 2015

NOTE: "FAIR" INDICATES FEW OR NO CLOUDS BELOW 12,000 FEET WITH NO
SIGNIFICANT WEATHER AND/OR OBSTRUCTIONS TO VISIBILITY.


NDZ001>003-009>011-017-060700-
NORTHWEST NORTH DAKOTA

CITY           SKY/WX    TMP DP  RH WIND       PRES   REMARKS
WILLISTON      CLEAR     62  50  64 SE7       29.76F
6HR MIN TEMP:  60; 6HR MAX TEMP:  78;

MINOT          CLEAR     52  40  63 E7        29.82F
MINOT AFB      CLEAR     51  40  64 SE8       29.80
$$

NDZ018>021-031>035-040>046-060700-
SOUTHWEST NORTH DAKOTA

CITY           SKY/WX    TMP DP  RH WIND       PRES   REMARKS
BISMARCK       MOCLDY    60  53  77 S15       29.86R
6HR MIN TEMP:  56; 6HR MAX TEMP:  77;

DICKINSON      PTCLDY    55  50  83 SE14      29.78S
GARRISON         N/A     57  48  72 S9        29.83R
6HR MIN TEMP:  56; 6HR MAX TEMP:  75;

HETTINGER ARPT CLOUDY    56  51  84 SE15      29.81F
$$

NDZ004>008-012>016-024-026-027-054-060700-
NORTHEAST NORTH DAKOTA

CITY           SKY/WX    TMP DP  RH WIND       PRES   REMARKS
GRAND FORKS    CLEAR     62  52  69 SE10      29.96F
GRND FRKS AFB  CLEAR     61  52  71 S10       29.96S
DEVILS LAKE    CLEAR     61  52  72 SE15      29.91S
$$

NDZ022-023-025-028>030-036>039-047>053-060700-
SOUTHEAST NORTH DAKOTA

CITY           SKY/WX    TMP DP  RH WIND       PRES   REMARKS
FARGO          MOCLDY    64  53  67 S17G26    29.97F
6HR MIN TEMP:  64; 6HR MAX TEMP:  76;

JAMESTOWN      CLOUDY    62  55  77 SE13      29.92S
$$



USA.gov is the U.S. government's official web portal to all federal, state and local government web resources and services.